When you browse on this site, cookies collect data to enhance your experience and personalize the content and advertising you see.
Visit our Privacy Policy to learn more. By continuing to use the site, you agree to this use of cookies and data.
  • In Lithuania
  • List of Countries
  • For 7 days
  • Water Temperature
  • Weather Map
  • Weather Widgets
  • user-avatar
    Login

    Hourly Weather Yulara

    Today, 19 August, Monday

    Time Temperature Precipitation Wind Pressure Humidity
    00:00 +6°C° 0 mm 5 mps 726 mmHg 61%
    01:00 +4°C° 0 mm 6 mps 726 mmHg 63%
    02:00 +4°C° 0 mm 6 mps 725 mmHg 65%
    03:00 +3°C° 0 mm 7 mps 725 mmHg 70%
    04:00 +2°C° 0 mm 6 mps 726 mmHg 73%
    05:00 +2°C° 0 mm 6 mps 726 mmHg 76%
    06:00 +1°C° 0 mm 6 mps 727 mmHg 79%
    07:00 +3°C° 0 mm 7 mps 727 mmHg 70%
    08:00 +4°C° 0 mm 8 mps 728 mmHg 61%
    09:00 +6°C° 0 mm 9 mps 728 mmHg 51%
    10:00 +8°C° 0 mm 9 mps 728 mmHg 43%
    11:00 +12°C° 0 mm 9 mps 727 mmHg 35%
    12:00 +15°C° 0 mm 9 mps 727 mmHg 27%
    13:00 +16°C° 0 mm 9 mps 726 mmHg 26%
    14:00 +17°C° 0 mm 9 mps 726 mmHg 24%
    15:00 +18°C° 0 mm 9 mps 725 mmHg 22%
    16:00 +16°C° 0 mm 8 mps 726 mmHg 25%
    17:00 +15°C° 0 mm 7 mps 726 mmHg 29%
    18:00 +12°C° 0 mm 7 mps 726 mmHg 32%
    19:00 +11°C° 0 mm 6 mps 727 mmHg 37%
    20:00 +9°C° 0 mm 6 mps 727 mmHg 43%
    21:00 +8°C° 0 mm 6 mps 728 mmHg 48%
    22:00 +7°C° 0 mm 6 mps 728 mmHg 51%
    23:00 +6°C° 0 mm 5 mps 728 mmHg 54%

    Tomorrow, 20 August, Tuesday

    Time Temperature Precipitation Wind Pressure Humidity
    00:00 +6°C° 0 mm 5 mps 728 mmHg 57%
    01:00 +5°C° 0 mm 5 mps 728 mmHg 61%
    02:00 +3°C° 0 mm 5 mps 728 mmHg 65%
    03:00 +3°C° 0 mm 5 mps 728 mmHg 69%
    04:00 +2°C° 0 mm 5 mps 728 mmHg 72%
    05:00 +2°C° 0 mm 5 mps 728 mmHg 75%
    06:00 +2°C° 0 mm 6 mps 728 mmHg 78%
    07:00 +4°C° 0 mm 7 mps 729 mmHg 69%
    08:00 +6°C° 0 mm 8 mps 729 mmHg 60%
    09:00 +8°C° 0 mm 9 mps 730 mmHg 51%
    10:00 +11°C° 0 mm 9 mps 729 mmHg 44%
    11:00 +13°C° 0 mm 9 mps 729 mmHg 36%
    12:00 +16°C° 0 mm 9 mps 728 mmHg 28%
    13:00 +17°C° 0 mm 9 mps 728 mmHg 25%
    14:00 +18°C° 0 mm 9 mps 727 mmHg 22%
    15:00 +20°C° 0 mm 8 mps 726 mmHg 19%
    16:00 +18°C° 0 mm 8 mps 726 mmHg 22%
    17:00 +16°C° 0 mm 7 mps 726 mmHg 25%
    18:00 +14°C° 0 mm 6 mps 726 mmHg 27%
    19:00 +13°C° 0 mm 6 mps 727 mmHg 31%
    20:00 +10°C° 0 mm 6 mps 727 mmHg 35%
    21:00 +9°C° 0 mm 6 mps 727 mmHg 39%
    22:00 +8°C° 0 mm 6 mps 727 mmHg 43%
    23:00 +7°C° 0 mm 6 mps 727 mmHg 47%

    Day after tomorrow, 21 August, Wednesday

    Time Temperature Precipitation Wind Pressure Humidity
    00:00 +6°C° 0 mm 5 mps 727 mmHg 50%
    01:00 +6°C° 0 mm 5 mps 727 mmHg 54%
    02:00 +5°C° 0 mm 5 mps 727 mmHg 57%
    03:00 +5°C° 0 mm 5 mps 727 mmHg 60%
    04:00 +3°C° 0 mm 5 mps 727 mmHg 63%
    05:00 +3°C° 0 mm 5 mps 727 mmHg 65%
    06:00 +2°C° 0 mm 5 mps 727 mmHg 68%
    07:00 +5°C° 0 mm 6 mps 727 mmHg 59%
    08:00 +8°C° 0 mm 7 mps 727 mmHg 51%
    09:00 +11°C° 0 mm 9 mps 728 mmHg 42%
    10:00 +13°C° 0 mm 9 mps 727 mmHg 37%
    11:00 +16°C° 0 mm 9 mps 727 mmHg 31%
    12:00 +18°C° 0 mm 9 mps 727 mmHg 25%
    13:00 +20°C° 0 mm 8 mps 726 mmHg 22%
    14:00 +21°C° 0 mm 8 mps 725 mmHg 19%
    15:00 +22°C° 0 mm 8 mps 724 mmHg 16%
    16:00 +20°C° 0 mm 7 mps 724 mmHg 19%
    17:00 +17°C° 0 mm 6 mps 724 mmHg 22%
    18:00 +15°C° 0 mm 5 mps 724 mmHg 24%
    19:00 +14°C° 0 mm 5 mps 724 mmHg 28%
    20:00 +12°C° 0 mm 5 mps 725 mmHg 33%
    21:00 +10°C° 0 mm 5 mps 725 mmHg 37%
    22:00 +9°C° 0 mm 5 mps 725 mmHg 40%
    23:00 +8°C° 0 mm 4 mps 725 mmHg 44%

    22 August, Thursday

    Time Temperature Precipitation Wind Pressure Humidity
    00:00 +7°C° 0 mm 4 mps 725 mmHg 47%
    01:00 +6°C° 0 mm 4 mps 725 mmHg 50%
    02:00 +6°C° 0 mm 4 mps 725 mmHg 53%
    03:00 +5°C° 0 mm 4 mps 724 mmHg 56%
    04:00 +5°C° 0 mm 4 mps 724 mmHg 59%
    05:00 +4°C° 0 mm 4 mps 725 mmHg 61%
    06:00 +4°C° 0 mm 4 mps 725 mmHg 64%
    07:00 +6°C° 0 mm 5 mps 725 mmHg 60%
    08:00 +9°C° 0 mm 6 mps 725 mmHg 56%
    09:00 +11°C° 0 mm 7 mps 726 mmHg 51%
    10:00 +14°C° 0 mm 7 mps 725 mmHg 43%
    11:00 +17°C° 0 mm 7 mps 725 mmHg 34%
    12:00 +20°C° 0 mm 7 mps 724 mmHg 25%
    13:00 +21°C° 0 mm 6 mps 724 mmHg 23%
    14:00 +22°C° 0 mm 6 mps 723 mmHg 20%
    15:00 +23°C° 0 mm 5 mps 722 mmHg 18%
    16:00 +21°C° 0 mm 4 mps 722 mmHg 20%
    17:00 +19°C° 0 mm 4 mps 722 mmHg 23%
    18:00 +16°C° 0 mm 3 mps 721 mmHg 25%
    19:00 +14°C° 0 mm 3 mps 722 mmHg 28%
    20:00 +13°C° 0 mm 4 mps 722 mmHg 30%
    21:00 +12°C° 0 mm 4 mps 722 mmHg 33%
    22:00 +11°C° 0 mm 4 mps 722 mmHg 36%
    23:00 +10°C° 0 mm 4 mps 722 mmHg 38%

    23 August, Friday

    Time Temperature Precipitation Wind Pressure Humidity
    00:00 +8°C° 0 mm 4 mps 722 mmHg 41%
    01:00 +8°C° 0 mm 3 mps 722 mmHg 45%
    02:00 +8°C° 0 mm 3 mps 721 mmHg 49%
    03:00 +7°C° 0 mm 3 mps 721 mmHg 53%
    04:00 +5°C° 0 mm 3 mps 721 mmHg 54%
    05:00 +5°C° 0 mm 3 mps 721 mmHg 56%
    06:00 +5°C° 0 mm 3 mps 722 mmHg 58%
    07:00 +9°C° 0 mm 3 mps 722 mmHg 50%
    08:00 +12°C° 0 mm 4 mps 722 mmHg 43%
    09:00 +14°C° 0 mm 4 mps 723 mmHg 35%
    10:00 +18°C° 0 mm 4 mps 722 mmHg 30%
    11:00 +20°C° 0 mm 4 mps 722 mmHg 24%
    12:00 +22°C° 0 mm 4 mps 721 mmHg 19%
    13:00 +23°C° 0 mm 4 mps 721 mmHg 17%
    14:00 +25°C° 0 mm 4 mps 720 mmHg 15%
    15:00 +26°C° 0 mm 4 mps 719 mmHg 13%
    16:00 +22°C° 0 mm 3 mps 719 mmHg 16%
    17:00 +20°C° 0 mm 3 mps 719 mmHg 18%
    18:00 +17°C° 0 mm 2 mps 719 mmHg 21%
    19:00 +16°C° 0 mm 2 mps 719 mmHg 28%
    20:00 +14°C° 0 mm 2 mps 719 mmHg 35%
    21:00 +13°C° 0 mm 2 mps 720 mmHg 41%
    22:00 +13°C° 0 mm 2 mps 720 mmHg 39%
    23:00 +12°C° 0 mm 2 mps 720 mmHg 37%

    24 August, Saturday

    Time Temperature Precipitation Wind Pressure Humidity
    00:00 +12°C° 0 mm 2 mps 719 mmHg 34%
    01:00 +10°C° 0 mm 2 mps 719 mmHg 37%
    02:00 +9°C° 0 mm 2 mps 718 mmHg 39%
    03:00 +9°C° 0 mm 2 mps 718 mmHg 41%
    04:00 +9°C° 0 mm 1 mps 718 mmHg 47%
    05:00 +8°C° 0 mm 1 mps 718 mmHg 52%
    06:00 +6°C° 0 mm 0 mps 719 mmHg 58%
    07:00 +10°C° 0 mm 2 mps 720 mmHg 48%
    08:00 +13°C° 0 mm 4 mps 720 mmHg 38%
    09:00 +16°C° 0 mm 6 mps 721 mmHg 29%
    10:00 +19°C° 0 mm 5 mps 721 mmHg 26%
    11:00 +21°C° 0 mm 4 mps 721 mmHg 24%
    12:00 +23°C° 0 mm 4 mps 721 mmHg 21%
    13:00 +25°C° 0 mm 4 mps 720 mmHg 20%
    14:00 +26°C° 0 mm 5 mps 720 mmHg 20%
    15:00 +26°C° 0 mm 5 mps 719 mmHg 19%
    16:00 +23°C° 0 mm 5 mps 719 mmHg 23%
    17:00 +21°C° 0 mm 5 mps 719 mmHg 27%
    18:00 +19°C° 0 mm 4 mps 719 mmHg 32%
    19:00 +17°C° 0 mm 5 mps 720 mmHg 36%
    20:00 +15°C° 0 mm 6 mps 721 mmHg 41%
    21:00 +14°C° 0 mm 6 mps 721 mmHg 46%
    22:00 +13°C° 0 mm 6 mps 721 mmHg 46%
    23:00 +11°C° 0 mm 6 mps 721 mmHg 46%
    Show more